Regional Weather Roundup
Issued by NWS

Home | Current Version | Previous Version | Text Only | Print | Product List | Glossary On
Versions: 1 2 3 4 5 6 7 8 9 10 11 12 13 14 15 16 17 18 19 20 21 22 23 24 25 26 27 28 29 30 31 32 33 34 35 36 37 38 39 40 41 42 43 44 45 46 47 48 49 50
000
ASUS45 KBOI 282210
RWRID

IDAHO REGIONAL WEATHER ROUNDUP
NATIONAL WEATHER SERVICE BOISE ID
400 PM MDT WED SEP 28 2016

NOTE: "FAIR" INDICATES FEW OR NO CLOUDS BELOW 12000 FEET
WITH NO SIGNIFICANT WEATHER AND/OR OBSTRUCTIONS TO VISIBILITY

IDZ012-014-282300-
SOUTHWEST IDAHO


CITY           SKY/WX    TMP DP  RH WIND       PRES   REMARKS
BOISE          SUNNY     92  33  12 SE18G25   29.94F
CALDWELL       SUNNY     91  46  21 S9        29.91F
MOUNTAIN HOME  SUNNY     89  38  16 E17       29.96F
$$

IDZ016-017-282300-
SOUTHCENTRAL IDAHO


CITY           SKY/WX    TMP DP  RH WIND       PRES   REMARKS
BURLEY         SUNNY     81  43  26 E8        30.07F
JEROME         SUNNY     83  35  18 E10       30.07F
TWIN FALLS     SUNNY     81  48  31 NE13      30.07F
$$

IDZ019>023-282300-
SOUTHEAST IDAHO


CITY           SKY/WX    TMP DP  RH WIND       PRES   REMARKS
IDAHO FALLS    SUNNY     81  41  24 SW8       30.15F
POCATELLO      SUNNY     83  43  24 NW7       30.13F
REXBURG        SUNNY     79  41  25 SW12      30.16F
$$

IDZ006-010-011-018-031-032-282300-
CENTRAL IDAHO MOUNTAINS


CITY           SKY/WX    TMP DP  RH WIND       PRES   REMARKS
MCCALL         SUNNY     81  33  17 SE13      30.08F
HAILEY         SUNNY     75  39  27 SE9       30.18F
STANLEY          N/A     76  30  18 VRB5      30.20F
SALMON         SUNNY     79  39  24 NW7       30.06F
CHALLIS        SUNNY     80  32  17 VRB5      30.11F
$$

IDZ002-004-006-007-026-282300-
NORTHERN IDAHO


CITY           SKY/WX    TMP DP  RH WIND       PRES   REMARKS
LEWISTON       SUNNY     84  48  28 W6        29.91F
LOWELL           N/A     79  57  46 N5        29.87F
COEUR D`ALENE  SUNNY     78  48  34 NE12      29.98F
MULLAN PASS    SUNNY     69  43  38 VRB3      30.16F
$$



USA.gov is the U.S. government's official web portal to all federal, state and local government web resources and services.